Tracking 29892 objects as of 21-Nov-2024
HD Live streaming from Space Station
objects crossing your sky now

COSMOS 1621

Track COSMOS 1621 now!
10-day predictions
COSMOS 1621 is classified as:


NORAD ID: 15473
Int'l Code: 1985-003E
Perigee: 1,402.1 km
Apogee: 1,421.2 km
Inclination: 82.6 °
Period: 113.9 minutes
Semi major axis: 7782 km
RCS: 0.2161 m2 (medium)
Launch date: January 15, 1985
Source: Commonwealth of Independent States (former USSR) (CIS)
Launch site: PLESETSK MISSILE AND SPACE COMPLEX (PKMTR)
Your satellite tracking list
Your tracking list is empty




NASA's NSSDC Master Catalog

Two Line Element Set (TLE):
1 15473U 85003E   24326.13295324  .00000002  00000-0 -46920-4 0  9990
2 15473  82.6104  81.9890 0012253  11.2001 104.4587 12.64478808839430
Source of the keplerian elements: AFSPC